sat.trackr.live / text

‹ back to catalog

STARLINK-3804

NORAD 52270 · 2022-041K

PAYLOAD ACTIVE UNKNOWN

§ Identity

Operator
Country
US
Launch date
2022-04-21
Launch site
AFETR
Launch vehicle
Mass (kg)
RCS (m²)

Purposes: comms

External: N2YO · Heavens-Above · Gunter

§ Orbital elements

Epoch: 2026-09-19T20:33:23.411808Z

Period
93.85 min
Inclination
53.1610°
Eccentricity
0.0001050
Mean motion
15.34386427 rev/d
Perigee alt
462.0 km
Apogee alt
463.5 km
Semi-major
6,840.9 km
B*
2.0548e-5
RAAN
310.7540°
Arg perigee
77.8389°
Mean anomaly
282.2731°
Rev number
24,376

§ Raw data

STARLINK-38041 52270U 22041K   26262.85652097  .00000318  00000+0  20548-4 0  99992 52270  53.1610 310.7540 0001050  77.8389 282.2731 15.34386427243762

JSON: /api/v1/satellites/52270 · /tle

For live sub-satellite position, see the globe view (requires WebGL).

§ Visibility from observer

Set your observer location to see the next 7 days of passes ≥ 10°. The values pass through the URL so the page stays shareable.

No JS? Fill the form by hand. The geolocation button needs JavaScript.